Retour au catalogue

STARLINK-32039

ActifCommunicationsVLEO
NORAD 60604·PAYLOAD·🇺🇸 United States

Lancé Aug 20, 2024 depuis Cape Canaveral Space Force Station

Loading…

Prochains Passages (prochaines 24 heures)

TLE

FraisSource: CelesTrak SupGP

Époque: Sep 15, 2026, 03:32 UTC

1 60604C 24150X   26258.14770833  .00040962  00000+0  12103-2 0  2581
2 60604  53.1570 148.4245 0001313  81.7115  90.9558 15.34367903    16

Suivez STARLINK-32039 en temps réel avec AllMySat

Download on the App Store